Tracking 30995 objects as of 7-Jul-2025
HD Live streaming from Space Station
objects crossing your sky now

ONEWEB-0234

Track ONEWEB-0234 now!
10-day predictions
ONEWEB-0234 is classified as:


NORAD ID: 48783
Int'l Code: 2021-045S
Perigee: 1,209.7 km
Apogee: 1,212.1 km
Inclination: 87.9 °
Period: 109.5 minutes
Semi major axis: 7581 km
RCS: Unknown
Launch date: May 28, 2021
Source: United Kingdom (UK)
Launch site: VOSTOCHNY COSMODROME (VOSTO)
Your satellite tracking list
Your tracking list is empty




NASA's NSSDC Master Catalog

Two Line Element Set (TLE):
1 48783U 21045S   25187.39790363  .00000062  00000-0  13045-3 0  9999
2 48783  87.9059 328.1185 0001638  65.0574 295.0726 13.15029485199012
Source of the keplerian elements: AFSPC